TimeAKDT,TemperatureF,Dew PointF,Humidity,Sea Level PressureIn,VisibilityMPH,Wind Direction,Wind SpeedMPH,Gust SpeedMPH,PrecipitationIn,Events,Conditions,WindDirDegrees,DateUTC
12:53 AM,32.0,24.1,73,30.00,10.0,East,3.5,-,0.00,,Overcast,80,2014-03-17 08:53:00
1:53 AM,32.0,25.0,75,30.00,10.0,ENE,5.8,-,N/A,,Overcast,70,2014-03-17 09:53:00
2:53 AM,33.1,26.1,75,30.00,10.0,ESE,9.2,-,N/A,,Overcast,110,2014-03-17 10:53:00
3:53 AM,32.0,27.0,82,29.99,9.0,ESE,15.0,-,0.00,Snow,Light Snow,110,2014-03-17 11:53:00
4:53 AM,32.0,27.0,82,29.99,5.0,East,11.5,-,0.00,Snow,Light Snow,100,2014-03-17 12:53:00
5:45 AM,30.9,28.9,92,29.98,3.0,East,11.5,-,0.01,Snow,Light Snow,100,2014-03-17 13:45:00
5:53 AM,30.9,28.9,92,29.98,2.0,East,11.5,-,0.02,Snow,Light Snow,80,2014-03-17 13:53:00
6:25 AM,30.9,28.9,92,29.97,3.0,East,8.1,-,0.02,Snow,Light Snow,80,2014-03-17 14:25:00
6:53 AM,32.0,30.0,92,29.96,4.0,East,12.7,-,0.03,Snow,Light Snow,100,2014-03-17 14:53:00
7:20 AM,32.0,30.0,92,29.95,1.0,East,13.8,-,0.01,Snow,Light Snow,100,2014-03-17 15:20:00
7:48 AM,32.0,30.2,93,29.95,0.8,East,11.5,-,0.03,Snow,Light Snow,100,2014-03-17 15:48:00
7:53 AM,32.0,30.0,92,29.95,1.0,East,13.8,-,0.04,Snow,Light Snow,80,2014-03-17 15:53:00
8:19 AM,32.0,30.9,96,29.94,1.0,ESE,17.3,-,0.02,Snow,Light Snow,110,2014-03-17 16:19:00
8:42 AM,33.1,30.9,92,29.93,2.0,East,17.3,-,0.03,Snow,Light Snow,100,2014-03-17 16:42:00
8:53 AM,33.1,30.9,92,29.93,2.0,East,15.0,-,0.03,Snow,Light Snow,100,2014-03-17 16:53:00
9:20 AM,33.1,30.9,92,29.92,1.5,East,13.8,-,0.02,Snow,Light Snow,90,2014-03-17 17:20:00
9:40 AM,33.1,30.9,92,29.92,1.5,East,10.4,-,0.02,Snow,Light Snow,100,2014-03-17 17:40:00
9:53 AM,33.1,30.9,92,29.92,2.5,East,11.5,-,0.03,Snow,Light Snow,90,2014-03-17 17:53:00
10:53 AM,33.1,30.9,92,29.92,1.8,ESE,15.0,-,0.02,Snow,Light Snow,110,2014-03-17 18:53:00
11:30 AM,33.1,32.0,96,29.93,2.5,East,12.7,-,0.03,Snow,Light Snow,100,2014-03-17 19:30:00
11:53 AM,34.0,32.0,92,29.93,3.0,ESE,18.4,-,0.04,Snow,Light Snow,110,2014-03-17 19:53:00
12:39 PM,35.1,32.0,89,29.95,3.0,ESE,21.9,27.6,0.02,Rain-Snow,Light Rain,110,2014-03-17 20:39:00
12:53 PM,35.1,32.0,89,29.95,3.0,ESE,23.0,-,0.02,Rain-Snow,Light Rain,120,2014-03-17 20:53:00
1:31 PM,35.1,32.0,89,29.94,3.0,East,20.7,26.5,0.02,Rain-Snow,Light Rain,100,2014-03-17 21:31:00
1:53 PM,35.1,32.0,89,29.95,7.0,ESE,20.7,-,0.02,Rain,Light Rain,110,2014-03-17 21:53:00
2:53 PM,36.0,32.0,86,29.96,8.0,ESE,18.4,-,0.01,Rain,Light Rain,110,2014-03-17 22:53:00
3:53 PM,36.0,33.1,89,29.96,7.0,ESE,16.1,-,0.00,Rain,Light Rain,110,2014-03-17 23:53:00
4:53 PM,36.0,33.1,89,29.97,10.0,SE,13.8,-,0.00,Rain,Light Rain,130,2014-03-18 00:53:00
5:53 PM,36.0,33.1,89,29.96,10.0,ESE,12.7,-,0.00,Rain,Light Rain,110,2014-03-18 01:53:00
6:53 PM,36.0,33.1,89,29.96,10.0,ESE,13.8,-,0.00,,Overcast,110,2014-03-18 02:53:00
7:24 PM,36.0,33.1,89,29.97,10.0,ESE,8.1,-,0.00,Rain,Light Rain,120,2014-03-18 03:24:00
7:53 PM,35.1,33.1,92,29.97,7.0,East,15.0,-,0.01,Rain,Light Rain,90,2014-03-18 03:53:00
8:00 PM,35.1,33.1,92,29.97,10.0,ENE,11.5,-,0.00,Rain,Light Rain,70,2014-03-18 04:00:00
8:53 PM,36.0,33.1,89,29.98,10.0,East,10.4,-,0.01,,Overcast,80,2014-03-18 04:53:00
9:53 PM,36.0,33.1,89,29.98,10.0,East,10.4,-,N/A,,Overcast,80,2014-03-18 05:53:00
10:53 PM,36.0,33.1,89,29.98,10.0,ENE,10.4,-,N/A,,Overcast,70,2014-03-18 06:53:00
11:53 PM,36.0,33.1,89,29.98,10.0,ENE,8.1,-,0.00,,Overcast,70,2014-03-18 07:53:00